Wind_Speed
1 1 4 7 5 3 5 4 3 1 1 4 5 5 3 2 2 1 2 5 5 6 6 5 6 6 6 6 5 6 6 7 7 7 8 8 9 8 7 7 6 6 5 4 4 5 6 7 8
3 2 3 6 3 5 6 5 5 4 2 4 6 8 7 8 6 6 7 9 7 5 4 3 6 8 8 7 7 6 6 6 6 8 8 7 8 8 7 6 5 6 5 5 6 6 7 8 9
3 5 5 3 4 5 5 7 5 4 4 6 9 10 12 12 9 7 9 10 8 8 9 7 7 9 10 9 8 8 8 7 8 7 8 8 8 8 8 7 7 7 7 6 6 6 8 9 10
2 4 7 7 5 6 6 8 6 5 6 8 10 11 13 10 7 9 10 9 9 9 9 7 8 9 10 10 10 10 8 8 9 10 9 9 9 9 8 8 9 8 8 8 8 8 9 10 11
5 5 6 6 7 7 7 9 8 7 8 10 12 12 11 10 10 10 12 13 13 11 8 6 6 8 9 10 11 11 10 10 11 11 11 11 11 11 10 10 10 9 9 9 9 9 10 11 12
6 6 5 6 7 8 8 9 8 8 9 10 8 9 10 11 11 12 12 13 14 13 11 12 11 11 11 11 11 11 11 11 11 11 12 12 13 13 13 13 12 12 11 12 11 11 11 12 12
6 6 5 6 7 9 10 9 9 9 8 9 11 13 12 12 13 13 13 14 13 10 12 14 15 14 12 12 11 12 12 12 12 13 13 13 14 14 14 15 14 14 14 14 14 14 13 13 12
5 4 4 6 7 7 9 10 11 10 11 11 10 10 12 13 14 14 14 14 15 14 14 15 12 8 9 10 11 13 13 13 12 13 14 15 15 15 15 16 16 15 15 16 16 17 16 14 14
3 3 4 6 7 10 10 11 12 11 11 11 15 17 17 15 15 16 17 16 15 15 13 12 12 12 12 14 15 15 15 14 15 16 16 16 16 17 17 18 17 17 17 17 17 18 19 17 15
4 4 4 4 7 7 8 9 12 13 12 13 14 16 16 16 16 16 17 18 18 18 17 16 15 16 17 17 19 18 18 19 18 16 18 19 18 19 20 19 18 19 18 18 18 19 20 19 17
4 4 4 6 7 9 11 11 13 12 12 13 11 7 9 13 17 17 19 21 22 23 24 24 23 23 23 22 23 19 19 20 21 21 20 20 22 22 22 22 21 21 20 18 19 20 21 21 19
4 6 6 8 10 13 13 12 11 7 9 7 9 11 11 10 9 12 16 20 23 26 27 28 28 26 23 21 21 20 20 23 23 23 24 24 23 25 26 26 25 24 22 20 20 20 22 22 21
7 6 7 9 12 15 14 13 6 8 7 11 13 13 14 16 19 21 26 27 27 27 27 27 26 23 21 21 21 22 23 26 26 27 28 27 27 27 28 28 28 27 25 24 22 21 22 21 22
10 9 11 12 14 15 12 8 8 12 13 16 19 19 22 27 30 32 30 28 28 29 30 30 28 26 24 24 24 25 26 28 26 27 28 32 32 31 30 30 29 29 28 27 25 24 23 22 22
12 11 9 9 10 13 16 13 13 19 21 24 25 26 36 32 30 30 29 29 29 30 31 31 31 31 32 32 32 33 33 31 30 29 27 27 28 34 34 33 32 32 29 29 28 26 25 23 22
12 7 13 10 15 17 19 23 13 15 20 26 35 34 34 30 28 26 25 26 30 31 32 33 34 35 35 35 37 38 37 36 34 32 31 32 32 31 35 37 35 33 30 29 27 26 25 23 22
19 18 23 19 16 23 21 29 32 28 28 36 38 36 33 28 24 24 27 28 29 30 33 35 37 37 38 38 41 41 41 40 37 35 34 32 33 34 33 35 36 35 33 26 25 30 27 25 23
19 23 23 25 27 35 33 30 25 37 36 29 21 19 14 22 34 33 32 33 34 34 33 34 36 37 37 39 40 41 42 41 40 38 36 34 31 29 33 34 35 34 32 28 25 26 28 26 26
20 23 27 29 30 25 33 39 35 35 27 12 9 11 25 31 21 24 26 26 26 26 28 29 30 33 36 38 39 38 38 35 35 35 34 33 32 28 28 33 35 36 32 31 28 27 27 30 31
23 26 28 25 18 33 39 40 34 19 14 13 19 24 16 20 19 23 30 34 36 36 35 34 35 36 37 37 39 40 37 35 28 33 35 32 30 30 32 33 36 37 38 36 33 30 28 27 30
24 20 19 28 35 32 27 31 15 11 15 20 12 13 14 23 28 31 29 30 32 35 36 35 34 34 34 33 34 34 37 38 35 31 34 31 31 34 36 35 37 38 39 38 36 30 29 25 28
20 18 25 26 31 23 21 12 16 14 12 7 9 20 27 27 28 26 26 27 30 32 34 36 35 32 33 35 36 36 36 37 36 35 36 37 35 33 35 36 38 39 39 40 37 32 30 28 25
17 24 28 37 35 23 11 7 7 7 10 7 23 26 26 25 22 22 28 27 30 30 28 29 27 25 26 29 28 30 34 32 29 33 36 30 35 33 34 35 35 39 42 41 39 37 35 31 29
25 28 36 14 14 3 6 6 7 11 12 25 30 26 23 20 28 33 29 32 29 25 28 28 29 29 30 32 31 31 32 35 33 32 29 36 36 32 30 35 35 36 40 41 40 40 36 32 30
21 27 10 5 4 3 6 13 24 27 16 27 25 23 22 31 39 32 30 31 29 32 34 33 29 33 32 31 29 28 30 32 32 32 27 30 36 34 27 32 32 32 37 40 39 39 35 32 30
18 9 4 6 6 12 28 11 7 11 21 25 18 31 34 31 30 31 33 31 33 32 29 30 28 28 32 30 28 24 26 27 30 32 31 28 32 29 35 29 28 33 34 33 32 33 33 29 25
11 11 13 17 21 8 9 12 20 13 31 19 32 25 31 31 35 29 30 34 29 25 26 31 28 28 28 29 29 24 24 25 22 22 36 36 30 31 31 26 27 26 25 29 29 29 29 27 25
20 21 9 5 4 5 5 20 22 29 34 30 29 32 32 31 30 26 30 25 26 24 26 30 29 29 30 28 28 28 23 23 22 22 24 28 37 36 30 24 23 24 28 30 29 28 27 27 28
22 13 6 7 8 3 6 15 31 41 22 31 33 30 29 30 26 27 28 25 26 24 27 31 32 28 29 28 28 29 26 22 21 25 22 20 23 26 24 21 18 24 29 27 27 28 26 22 26
12 5 7 2 7 19 18 36 32 24 34 29 27 27 28 26 24 24 25 24 23 27 31 34 32 28 29 29 29 29 28 24 23 24 19 16 19 18 18 14 18 24 27 27 26 24 20 20 17
Wind_Direction
185 163 168 167 175 183 171 172 150 141 343 338 349 347 344 1 21 341 356 344 340 343 305 286 286 295 305 316 324 337 345 351 360 5 6 9 7 1 350 342 327 318 319 314 311 319 319 321 329
248 228 191 187 187 176 185 186 179 222 281 312 325 335 329 316 301 295 303 311 320 325 338 282 263 266 269 276 281 286 296 311 323 333 344 354 357 356 354 350 340 330 327 320 314 312 311 317 320
243 236 230 208 211 189 190 178 185 235 276 300 312 321 323 324 306 301 302 313 318 323 317 294 267 261 262 264 269 277 284 293 297 304 313 324 334 336 337 338 343 342 337 329 319 313 308 308 314
280 234 226 226 209 193 191 189 196 225 258 281 293 298 306 309 295 295 295 304 307 315 310 284 273 269 269 270 270 271 275 281 287 291 290 295 300 309 315 319 325 327 330 330 325 322 316 313 313
261 263 237 231 215 204 199 198 216 239 263 280 289 290 294 297 288 283 282 289 293 301 287 273 290 283 269 265 269 274 279 279 280 282 283 282 284 288 294 299 301 308 310 315 316 317 317 318 316
253 252 246 241 225 214 212 216 225 246 277 299 298 298 297 288 283 282 286 293 296 293 277 280 288 287 277 269 268 270 270 269 270 273 272 273 277 282 284 287 290 295 296 299 303 305 304 304 304
245 248 260 263 229 226 224 228 247 273 281 288 298 304 302 290 292 294 294 295 294 288 282 282 286 284 272 271 270 270 268 266 266 267 267 269 270 271 275 280 283 287 291 293 296 296 296 300 303
257 264 269 258 232 227 239 252 263 266 280 293 288 299 293 292 294 294 294 292 292 292 290 290 289 288 295 295 290 278 272 270 266 267 270 269 269 267 269 271 276 279 283 287 290 291 293 295 296
282 266 285 264 247 242 246 249 261 272 282 292 290 293 292 290 288 289 290 291 292 295 293 290 286 293 296 300 305 293 281 278 274 268 266 267 271 269 264 265 267 272 276 278 281 283 288 288 287
301 285 287 264 251 253 257 255 263 279 298 285 281 286 287 290 288 289 290 289 291 289 287 283 279 277 280 283 291 288 277 277 276 276 267 263 260 258 260 260 264 270 276 280 283 283 282 283 285
321 303 282 272 274 272 270 269 281 307 304 295 308 290 288 288 282 281 285 288 289 288 288 286 286 284 282 280 279 272 267 266 271 273 274 269 262 255 255 258 261 267 271 276 277 276 279 281 278
305 301 287 282 284 285 285 291 295 296 291 304 299 305 305 292 280 282 284 286 285 283 282 283 284 281 278 277 281 281 280 272 263 265 270 272 270 263 259 260 258 261 267 269 269 268 270 274 276
307 307 301 295 287 290 298 300 293 252 269 272 280 296 297 296 285 280 290 286 279 275 273 278 279 274 273 279 277 282 287 284 277 268 265 267 267 270 268 265 262 262 262 264 265 263 262 266 272
311 315 299 290 283 286 289 283 284 271 276 270 269 272 289 293 290 290 289 283 276 271 269 274 276 270 272 277 275 280 291 292 283 275 268 264 262 261 264 270 273 269 263 263 264 262 256 257 261
318 322 312 307 303 293 292 290 291 291 284 272 273 278 288 292 291 287 285 277 273 272 274 276 274 273 274 277 279 277 285 293 287 282 274 267 269 262 259 264 271 272 268 262 263 263 257 254 255
330 336 332 321 308 301 296 295 290 288 276 267 286 295 296 293 285 282 282 278 274 275 275 273 272 272 275 277 275 277 281 289 283 275 276 274 275 275 262 253 257 263 264 260 260 259 251 249 249
321 318 318 321 316 305 302 291 298 291 288 298 301 299 296 295 300 300 293 287 283 279 277 275 274 275 275 275 274 273 274 278 278 274 273 274 276 266 262 256 253 256 255 252 255 262 245 245 245
329 328 322 318 317 309 306 304 303 304 307 305 299 298 296 303 300 293 289 288 287 286 285 282 280 279 278 277 275 274 273 272 275 272 271 273 275 267 259 251 251 254 241 243 251 261 261 250 244
325 316 313 313 313 306 313 310 316 314 310 308 295 292 292 297 299 295 297 303 303 302 298 294 291 289 287 282 279 278 279 279 279 277 269 269 276 275 264 253 246 243 243 254 257 255 257 256 248
316 309 308 319 312 313 316 312 313 300 263 260 289 303 302 302 311 313 308 305 302 299 295 293 291 290 289 288 291 289 291 285 269 267 265 257 260 272 270 257 248 243 244 247 248 254 257 256 257
314 315 321 316 321 322 316 314 305 276 258 292 284 288 297 309 312 313 311 308 307 305 302 301 301 301 299 292 288 286 285 284 282 262 257 259 258 260 261 256 250 245 242 243 243 241 251 251 231
331 317 312 315 320 310 304 292 298 283 287 261 269 311 322 322 321 314 313 311 313 311 309 306 303 305 304 297 290 283 281 275 270 266 255 252 259 260 257 249 245 245 242 240 240 236 238 234 236
317 317 315 312 301 289 287 253 282 309 304 286 311 322 323 321 320 324 321 314 324 323 319 317 314 302 299 301 298 288 271 264 266 262 253 251 245 254 252 251 245 242 241 239 235 232 233 234 234
319 314 320 309 294 262 152 347 279 299 301 312 323 325 324 321 329 329 319 317 316 309 311 311 310 308 298 296 297 296 292 277 263 260 259 251 238 250 255 245 245 242 240 240 235 230 231 234 238
312 332 333 321 331 317 208 326 281 297 323 324 316 324 323 322 324 322 319 317 308 305 310 305 298 301 302 301 298 295 292 292 281 256 248 250 236 253 255 248 246 247 244 238 232 230 232 234 240
326 359 322 293 308 299 295 255 293 315 316 318 322 320 315 312 317 316 314 311 314 315 311 310 307 298 302 308 303 302 304 294 296 256 246 239 238 226 252 251 254 250 242 234 227 226 232 233 233
319 311 288 275 276 266 265 282 280 305 315 303 317 320 307 301 301 308 307 309 311 306 310 321 316 320 316 316 310 311 305 296 285 283 260 250 238 253 261 263 258 249 233 222 218 218 223 222 226
300 300 293 257 291 281 282 294 291 313 312 319 324 323 319 314 308 291 297 304 307 305 314 319 320 319 322 324 315 319 312 301 282 281 261 257 256 259 258 260 247 222 215 207 213 218 220 218 205
303 302 260 254 267 281 305 280 305 309 327 323 323 323 320 315 315 311 301 302 302 302 307 313 316 313 316 320 319 324 320 305 290 284 278 267 250 249 252 251 222 215 207 204 209 216 217 211 222
292 278 204 231 276 283 286 286 302 313 316 327 323 326 326 325 317 314 308 308 305 303 308 311 311 309 313 318 319 324 322 314 302 293 283 262 246 249 250 239 206 214 207 206 202 202 207 215 227
Height
3165 3166 3167 3168 3173 3170 3169 3171 3171 3172 3173 3173 3173 3173 3174 3174 3173 3177 3173 3172 3171 3170 3171 3171 3171 3171 3171 3170 3170 3169 3168 3167 3167 3166 3165 3164 3163 3163 3162 3162 3162 3162 3162 3161 3161 3160 3159 3158 3157
3164 3165 3166 3167 3169 3168 3170 3170 3171 3172 3172 3173 3173 3173 3174 3174 3173 3173 3173 3172 3171 3171 3170 3170 3170 3170 3170 3169 3169 3168 3168 3167 3166 3166 3165 3164 3163 3163 3162 3162 3161 3161 3161 3161 3161 3159 3158 3157 3156
3163 3165 3167 3166 3166 3167 3168 3169 3170 3171 3172 3173 3173 3173 3172 3173 3173 3172 3172 3171 3171 3170 3169 3169 3169 3168 3168 3168 3167 3167 3167 3165 3165 3164 3164 3164 3163 3163 3162 3162 3161 3161 3161 3160 3159 3158 3157 3156 3155
3163 3165 3166 3165 3165 3167 3168 3169 3170 3170 3172 3171 3172 3171 3172 3172 3172 3172 3171 3170 3170 3169 3168 3167 3167 3167 3167 3166 3165 3165 3164 3164 3164 3164 3163 3163 3163 3162 3162 3161 3161 3160 3160 3159 3159 3158 3157 3155 3154
3163 3163 3163 3164 3165 3166 3167 3168 3169 3170 3170 3170 3170 3170 3170 3170 3170 3170 3169 3169 3168 3168 3167 3166 3165 3165 3164 3163 3163 3163 3163 3163 3162 3162 3161 3161 3161 3161 3161 3160 3160 3159 3158 3157 3157 3156 3155 3153 3152
3162 3162 3163 3163 3164 3165 3166 3167 3168 3169 3169 3168 3168 3168 3169 3168 3168 3168 3167 3167 3166 3166 3165 3164 3163 3163 3162 3161 3160 3160 3160 3160 3159 3159 3159 3159 3159 3159 3158 3158 3158 3157 3157 3155 3155 3154 3153 3152 3151
3161 3161 3162 3162 3163 3164 3165 3166 3167 3167 3168 3168 3167 3165 3166 3165 3166 3165 3165 3165 3164 3164 3163 3162 3161 3160 3159 3159 3158 3157 3157 3157 3156 3156 3156 3156 3155 3156 3155 3155 3155 3154 3153 3153 3153 3152 3151 3150 3149
3160 3161 3161 3161 3162 3164 3164 3165 3166 3166 3166 3165 3165 3163 3164 3163 3162 3163 3162 3162 3162 3162 3161 3159 3158 3158 3157 3157 3157 3155 3155 3154 3153 3153 3153 3152 3152 3151 3151 3151 3151 3150 3150 3150 3150 3149 3149 3148 3147
3159 3161 3160 3161 3161 3162 3163 3164 3164 3164 3164 3164 3162 3160 3160 3160 3159 3159 3158 3158 3158 3158 3158 3157 3157 3156 3155 3155 3154 3153 3152 3151 3150 3150 3149 3148 3148 3147 3147 3147 3147 3146 3146 3146 3146 3145 3145 3145 3145
3159 3159 3159 3160 3160 3161 3161 3162 3162 3162 3162 3160 3158 3157 3156 3156 3155 3155 3154 3154 3153 3153 3153 3152 3152 3152 3151 3151 3149 3149 3148 3148 3147 3146 3145 3145 3144 3143 3143 3143 3143 3143 3142 3142 3142 3141 3141 3142 3142
3157 3158 3158 3158 3159 3159 3159 3160 3159 3159 3158 3155 3154 3153 3152 3151 3150 3151 3150 3149 3148 3148 3147 3146 3146 3146 3146 3145 3144 3142 3142 3142 3142 3142 3142 3141 3140 3139 3138 3138 3138 3138 3138 3138 3138 3137 3136 3136 3137
3157 3157 3157 3157 3157 3156 3156 3157 3157 3157 3154 3153 3150 3150 3150 3149 3147 3147 3147 3146 3144 3143 3142 3141 3140 3140 3139 3139 3138 3137 3136 3135 3135 3136 3136 3136 3136 3135 3134 3133 3133 3133 3134 3134 3133 3133 3132 3132 3132
3156 3156 3156 3156 3155 3154 3154 3154 3154 3153 3152 3150 3148 3147 3146 3145 3144 3143 3141 3140 3138 3137 3136 3135 3134 3134 3133 3133 3132 3131 3131 3130 3129 3128 3128 3128 3130 3130 3129 3128 3128 3128 3128 3128 3128 3128 3127 3127 3127
3155 3155 3154 3153 3152 3152 3152 3152 3152 3152 3151 3147 3145 3143 3142 3140 3138 3135 3133 3132 3131 3130 3129 3128 3128 3127 3126 3126 3126 3125 3124 3123 3123 3122 3122 3121 3121 3121 3122 3122 3122 3123 3123 3123 3123 3123 3121 3121 3122
3152 3153 3152 3152 3151 3150 3149 3151 3150 3148 3147 3143 3139 3138 3136 3133 3131 3128 3127 3125 3124 3122 3121 3121 3121 3121 3120 3119 3118 3118 3117 3117 3116 3114 3114 3114 3113 3113 3114 3115 3116 3117 3117 3117 3117 3118 3117 3116 3117
3151 3151 3151 3151 3150 3148 3148 3147 3147 3143 3140 3136 3134 3131 3129 3126 3124 3122 3121 3119 3117 3116 3115 3113 3112 3111 3110 3110 3110 3110 3109 3108 3108 3108 3106 3104 3104 3104 3105 3105 3108 3110 3110 3110 3110 3111 3111 3112 3112
3149 3148 3147 3147 3147 3144 3143 3138 3140 3136 3131 3129 3126 3122 3120 3119 3117 3116 3113 3112 3110 3109 3107 3105 3103 3102 3101 3100 3099 3099 3099 3099 3099 3098 3097 3097 3095 3094 3095 3097 3100 3101 3102 3103 3104 3103 3103 3104 3106
3147 3145 3144 3143 3142 3136 3134 3132 3131 3126 3123 3120 3118 3115 3115 3114 3112 3108 3106 3104 3101 3099 3097 3095 3093 3091 3090 3089 3089 3088 3088 3088 3088 3087 3087 3086 3087 3085 3085 3087 3090 3092 3092 3095 3096 3098 3098 3099 3100
3145 3143 3140 3139 3136 3128 3127 3124 3123 3120 3116 3114 3112 3111 3110 3107 3104 3103 3101 3098 3095 3092 3089 3086 3084 3081 3079 3078 3076 3076 3076 3077 3076 3077 3077 3077 3075 3075 3076 3077 3080 3083 3085 3088 3088 3089 3091 3093 3094
3142 3139 3135 3132 3131 3128 3122 3116 3114 3111 3111 3110 3110 3108 3105 3102 3100 3097 3095 3091 3088 3085 3082 3078 3075 3072 3070 3067 3066 3065 3065 3066 3067 3067 3067 3067 3067 3067 3067 3068 3070 3073 3075 3078 3079 3082 3084 3085 3087
3134 3132 3130 3127 3120 3118 3112 3107 3107 3106 3107 3107 3105 3102 3101 3098 3095 3091 3088 3085 3081 3077 3075 3071 3067 3063 3061 3059 3057 3055 3055 3055 3056 3056 3058 3057 3056 3056 3057 3058 3059 3062 3064 3067 3070 3073 3076 3078 3079
3132 3131 3127 3124 3121 3115 3113 3106 3103 3102 3103 3101 3098 3096 3094 3092 3089 3086 3083 3079 3074 3071 3067 3063 3060 3056 3053 3049 3046 3045 3044 3043 3045 3045 3046 3047 3047 3047 3047 3047 3049 3050 3053 3055 3060 3064 3067 3070 3073
3130 3126 3123 3119 3115 3110 3107 3109 3097 3100 3099 3099 3095 3091 3088 3085 3083 3080 3077 3073 3070 3066 3061 3057 3053 3048 3045 3041 3037 3034 3033 3031 3031 3033 3035 3035 3035 3037 3038 3038 3038 3040 3042 3045 3050 3055 3058 3062 3065
3126 3122 3118 3111 3111 3110 3108 3111 3099 3097 3096 3095 3091 3087 3084 3081 3078 3074 3071 3068 3064 3060 3056 3051 3047 3042 3038 3034 3030 3026 3022 3020 3019 3021 3021 3023 3024 3027 3028 3028 3028 3029 3032 3035 3040 3045 3050 3055 3059
3127 3123 3118 3109 3106 3106 3106 3105 3095 3094 3094 3090 3087 3084 3080 3076 3072 3068 3064 3061 3058 3055 3050 3045 3040 3036 3030 3026 3023 3019 3015 3012 3010 3010 3011 3012 3013 3018 3018 3018 3017 3018 3021 3025 3030 3036 3042 3047 3051
3124 3125 3130 3124 3113 3111 3110 3095 3090 3091 3092 3088 3084 3080 3076 3072 3067 3063 3059 3055 3052 3048 3042 3037 3032 3028 3023 3019 3016 3012 3008 3005 3002 3002 3002 3004 3006 3008 3011 3008 3007 3009 3013 3017 3024 3030 3035 3040 3044
3123 3123 3122 3118 3111 3107 3099 3096 3088 3087 3088 3084 3081 3075 3072 3066 3062 3057 3053 3050 3046 3042 3037 3031 3026 3021 3016 3012 3009 3005 3002 2998 2995 2994 2995 2995 2998 2999 3001 3000 3000 3002 3006 3011 3019 3023 3028 3033 3037
3120 3118 3119 3116 3112 3105 3096 3094 3086 3085 3081 3079 3075 3068 3063 3059 3055 3051 3046 3043 3040 3036 3033 3028 3022 3016 3012 3007 3004 2999 2996 2992 2989 2988 2989 2989 2990 2992 2992 2991 2993 2995 3000 3005 3011 3017 3021 3026 3030
3114 3114 3116 3116 3112 3105 3096 3087 3086 3082 3077 3074 3069 3064 3057 3053 3049 3044 3041 3038 3035 3032 3028 3023 3017 3012 3008 3003 3000 2993 2990 2987 2984 2983 2981 2982 2984 2984 2985 2986 2988 2990 2996 3001 3006 3010 3015 3019 3024
3110 3110 3108 3111 3107 3100 3098 3079 3081 3079 3075 3070 3064 3060 3053 3048 3044 3040 3037 3034 3031 3027 3023 3018 3012 3007 3002 2998 2995 2989 2986 2981 2978 2975 2975 2976 2976 2977 2979 2981 2981 2988 2992 2995 3000 3005 3009 3014 3017